Regional Weather Roundup
Issued by NWS

Home | Current Version | Previous Version | Graphics & Text | Print | Product List | Glossary On
Versions: 1 2 3 4 5 6 7 8 9 10 11 12 13 14 15 16 17 18 19 20 21 22 23 24 25 26 27 28 29 30 31 32 33 34 35 36 37 38 39 40 41 42 43 44 45 46 47 48 49 50
000
ASUS43 KLOT 012106
RWRIL

ILLINOIS REGIONAL WEATHER ROUNDUP
NATIONAL WEATHER SERVICE CHICAGO/ROMEOVILLE IL
300 PM CST SUN MAR 01 2015

NOTE: "FAIR" INDICATES FEW OR NO CLOUDS BELOW 12,000 FEET WITH NO
SIGNIFICANT WEATHER AND/OR OBSTRUCTIONS TO VISIBILITY.

* THESE STATIONS ARE NOT UNDER NWS QUALITY CONTROL. THEY ALSO MAY NOT
  REPORT WEATHER SUCH AS PRECIPITATION OR FOG.

ILZ001-002-007-009-015-016-024-012200-
NORTHWEST ILLINOIS

CITY           SKY/WX    TMP DP  RH WIND       PRES   REMARKS
MOLINE         MOSUNNY   28  16  60 W9        30.32F WCI  19
STERLING*      MOSUNNY   27  18  69 W8        30.32F WCI  18
SAVANNA*       PTSUNNY   27  17  66 W9        30.31S WCI  17
$$

ILZ003-004-008-010-011-017-018-012200-
NORTH CENTRAL ILLINOIS

CITY           SKY/WX    TMP DP  RH WIND       PRES   REMARKS
ROCKFORD       PTSUNNY   25  14  63 W7        30.29F WCI  17
FREEPORT*      SUNNY     24  16  71 SW12      30.29F WCI  13
ROCHELLE*      SUNNY     22  18  82 SW10      30.30S WCI  12
DE KALB*       PTSUNNY   21  15  78 SW8       30.28F WCI  12
PERU*          MOSUNNY   25  17  73 W9        30.33S WCI  15
$$

ILZ005-006-012>014-019>023-012200-
NORTHEAST ILLINOIS

CITY           SKY/WX    TMP DP  RH WIND       PRES   REMARKS
CHICAGO-OHARE  PTSUNNY   25  15  66 SW12      30.27F WCI  14
CHICAGO-MIDWAY PTSUNNY   27  18  69 SW12      30.29F WCI  17
AURORA         CLOUDY    24  16  71 W9        30.29F WCI  14
LANSING*       PTSUNNY   25  17  69 SW8       30.29F WCI  17
JOLIET*        PTSUNNY   24  16  72 W7        30.31F WCI  16
WAUKEGAN       MOSUNNY   25  15  66 SW12G17   30.25F WCI  14
DUPAGE AIRPORT MIX PCPN  24  16  71 SW14      30.27F WCI  12
KANKAKEE*      CLOUDY    25  19  80 W8        30.32F WCI  16
WHEELING       MOSUNNY   27  15  61 W10       30.28F WCI  17
MORRIS*        MOSUNNY   23  18  81 W8        30.31S WCI  14
ROMEOVILLE*    PTSUNNY   24  17  75 W9        30.30F WCI  14
NORTHERLY ISL    N/A     26  18  71 SW7         N/A  WCI  19
$$

LMZ740>746-012200-
SOUTHERN LAKE MICHIGAN

STATION/POSITION SKY/WX   TEMP    WIND        PRES    VSBY  WAVE
                          AIR SEA DIR/SP/G                  HT/PER
                          (F)     (DEG/KT/KT) (MB)    (MI)  (FT/S)
WAUKEGAN HARBOR            25     230/ 10/ 17   N/A
HARRISON CRIB              25     250/  8/ 11   N/A
BURNHAM HARBOR             27     240/  8/  9   N/A
CALUMET HARBOR             26     200/  7/ 10 1024.2F
MICHIGAN CITY              25     260/  7/  8   N/A
$$

ILZ025>027-034>036-040-047-049-050-058-095>099-012200-
WEST-CENTRAL ILLINOIS

CITY           SKY/WX    TMP DP  RH WIND       PRES   REMARKS
QUINCY         MOSUNNY   28  19  69 NW7       30.35F WCI  21
GALESBURG*     PTSUNNY   25  18  75 W8        30.34S WCI  16
MACOMB*        CLOUDY    25  20  80 N3        30.38S
JACKSONVILLE*  CLOUDY    30  22  71 W5        30.36F WCI  25
PITTSFIELD*    MOSUNNY   30  22  73 NW5       30.36S WCI  25
$$

ILZ028>032-037-038-041>044-048-051>054-059>061-012200-
CENTRAL ILLINOIS

CITY           SKY/WX    TMP DP  RH WIND       PRES   REMARKS
PONTIAC        PTSUNNY   25  19  78 W6        30.33S WCI  18
BLOOMINGTON    MOSUNNY   27  21  77 NW7       30.33S WCI  20
DECATUR        CLOUDY    28  23  81 NW7       30.34R HAZE    WCI  21
PEORIA         CLOUDY    28  18  66 W8        30.34S WCI  20
LACON*         PTSUNNY   25  17  72 W9        30.33S WCI  15
LINCOLN*       MOSUNNY   30  22  72 W5        30.37R WCI  25
SPRINGFIELD    CLOUDY    29  21  72 N3        30.35F
TAYLORVILLE    CLOUDY    28  23  80 N8        30.35S WCI  20
$$

ILZ033-039-045-046-055>057-062-063-012200-
EAST-CENTRAL ILLINOIS

CITY           SKY/WX    TMP DP  RH WIND       PRES   REMARKS
CHAMPAIGN      CLOUDY    27  22  81 NW8       30.32S WCI  19
DANVILLE*      CLOUDY    26  22  84 NW6       30.28S WCI  19
RANTOUL*       CLOUDY    27  22  80 NW7       30.31S WCI  20
MATTOON        CLOUDY    28  23  81 NW8       30.32R WCI  20
PARIS*         CLOUDY    27  25  91 NW8       30.32S WCI  19
$$

ILZ079-100>102-012200-
SOUTHWEST ILLINOIS

CITY           SKY/WX    TMP DP  RH WIND       PRES   REMARKS
BELLEVILLE     CLOUDY    31  30  94 NW8       30.34R WCI  24
CAHOKIA*       CLOUDY    32  26  78 NW7       30.36R WCI  26
SPARTA*        CLOUDY    31  28  88 CALM      30.35S
$$

ILZ064>066-069>071-074>076-080>082-084>086-088>090-092>094-012200-
SOUTH-CENTRAL ILLINOIS

CITY           SKY/WX    TMP DP  RH WIND       PRES   REMARKS
CARBONDALE     CLOUDY    34  29  82 NW5       30.35R WCI  30
CAIRO*         CLOUDY    40  32  72 CALM      30.34S
EFFINGHAM*     CLOUDY    31  25  78 NW5       30.34F WCI  26
MARION         CLOUDY    34  32  93 NW9       30.35R WCI  26
MT. VERNON     CLOUDY    32  27  80 CALM      30.33F
CENTRALIA*     LGT RAIN  31  28  86 NW7       30.33F WCI  24
SALEM*         MIX PCPN  33  29  88 NW6       30.32F WCI  27
METROPOLIS*    CLOUDY    39  32  76 N7        30.33R WCI  34
$$

ILZ067-068-072-073-078-083-087-091-012200-
SOUTHEAST ILLINOIS

CITY           SKY/WX    TMP DP  RH WIND       PRES   REMARKS
LAWRENCEVILLE  CLOUDY    33  31  92 NW9       30.34R FOG     WCI  25
FLORA*         RAIN      31  29  92 NW7       30.34F WCI  25
FAIRFIELD*     CLOUDY    33  30  92 CALM      30.32F FOG
HARRISBURG*    CLOUDY    35  32  92 W7        30.36R WCI  29
ROBINSON*      CLOUDY    32  31  96 NW9       30.34R FOG     WCI  24
CARMI*         CLOUDY    34  33  96 W6        30.34R FOG     WCI  29
$$

ABBREVIATIONS USED IN REMARKS
   TC - TEMPERATURE IN CELSIUS
  WCI - WIND CHILL INDEX
   HX - HEAT INDEX
  VSB - VISIBILITY
$$




USA.gov is the U.S. government's official web portal to all federal, state and local government web resources and services.